[[{"header":{"parameterUnit":"m.s-1","parameterCategory":1,"la1":30.2991,"la2":30.254,"lo1":-89.0895,"lo2":-89.0444,"dy":0.0017,"dx":0.0017,"nx":28,"ny":28,"refTime":"2024-05-27T03:00:00:Z","depth":0,"parameterNumber":2,"parameterNumberName":"U-component_of_WINDS"},"data":[0,0,0,0,0,0,0,0,0,0,0,0,0,0,0,0,0,0,0,0,0,0,0,0,0,0,0,0,0,0,0,0,0,0,0,0,0,0,0,0,0,0,0,0,0,0,0,0,0,0,0,0,0,0,0,0,0,0,0.9594,0.9596,0,0.9779,0.9781,0.9783,0.9809,0.9807,0.9805,0.9804,0.9996,1.0003,1.001,0,0,0,0,0,0,0,0,0,0,0,0,0,0.9264,0.927,0.9594,0.9596,0.9598,0.9779,0.9781,0.9784,0.9809,0.9807,0.9805,0.9803,0.9994,1.0002,1.001,0,0,0,0,0,0,0,0,0,0,0,0,0,0.9424,0.9272,0.9593,0.9633,0.9638,0.9778,0.9781,0.9785,0.981,0.9807,0.9804,0.9802,0.9992,1.0001,1.0011,1.0126,0,0,1.0042,1.0047,0,0,0,0,0,0,0,0,0.9415,0.9437,0.9625,0.963,0.9636,0.9768,0.9736,0.9899,0.981,0.9745,0.9804,0.9801,0.9923,0.9938,0.9979,1.0135,1.0144,1.0043,1.0049,1.0054,1.0057,0,0,0,0,0,0,0,0.9404,0.9429,0.9667,0.9627,0.9635,0.9642,0.9662,0.9767,0.9846,0.975,0.9752,0.9774,0.9926,0.9969,0.9984,1.0147,1.0043,1.0052,1.0058,1.0062,1.0408,1.041,0,0,0,0,0,0,0.9386,0.9419,0.9661,0.9673,0.9517,0.965,0.9672,0.9729,0.9845,0.986,0.9776,0.9774,0.9953,0.9972,0.9991,1.0134,1.0054,1.0063,1.0069,1.0404,1.0408,1.0412,0,0,0,0,0,0,0.9378,0.9407,0.9654,0.9547,0.9579,0.9658,0.9722,0.9734,0.9777,0.9864,0.9879,0.9806,0.9952,0.9976,1.0092,1.0141,1.0068,1.0077,1.0401,1.0406,1.041,1.0421,0,0,0,0,0,0,0.9369,0.9404,0.9448,0.9547,0.9584,0.9752,0.9725,0.9739,0.9794,0.9794,0.9896,0.9911,0.9952,1.0077,1.0103,1.0154,1.0085,1.0397,1.0403,1.0408,1.0416,1.0425,1.0433,0,0,0,0,0,0.9357,0.9444,0.945,0.9479,0.9641,0.9755,0.9776,0.982,0.9798,0.9843,0.9899,0.9908,1.0131,1.0089,1.0118,1.0172,1.0394,1.0401,1.0408,1.0413,1.0423,1.0432,0,0,0,0,0,0,0.9349,0.9458,0.9466,0.9587,0.9661,0.9759,0.9817,0.983,0.9912,0.9909,0.9961,0.9984,1.0098,1.0147,1.0098,1.029,1.0261,1.0274,1.0255,1.0265,1.0273,1.026,1.0093,0,0,0,0,0,0.9361,0.9444,0.9535,0.9633,0.967,0.9737,0.9788,0.9816,0.9895,0.9927,0.9991,1.0069,1.0157,1.0213,1.0299,1.0423,1.0446,1.0475,1.0483,1.0489,1.05,1.0571,1.0585,1.0434,1.0434,1.0434,0,0,0.9388,0.9458,0.9507,0.9634,0.9694,0.978,0.9763,0.9854,0.9919,0.9941,1.0055,1.0105,1.0194,1.0315,1.0372,1.0359,1.0547,1.0498,1.0502,1.051,1.0579,1.0594,1.0606,1.0439,1.0438,1.0438,0,0,0.9481,0.9541,0.963,0.9691,0.9783,0.9827,0.9848,0.9943,0.9977,1.0092,1.0111,1.0188,1.0338,1.0401,1.0453,1.0569,1.058,1.0595,1.0639,1.0707,1.0718,1.0729,1.0772,1.0787,1.0606,1.0606,1.0606,0,0.9503,0.9631,0.9675,0.9766,0.9821,0.9844,0.9936,0.9993,1.0108,1.0147,1.0131,1.0319,1.0381,1.0518,1.0546,1.0587,1.0614,1.0585,1.0713,1.0724,1.0735,1.0777,1.0792,1.0607,1.0607,1.0607,1.0607,0,0.9655,0.9743,0.9805,0.9915,0.9977,1.0068,1.0126,1.0184,1.0206,1.0252,1.0369,1.0443,1.0545,1.0579,1.0601,1.0719,1.0709,1.0702,1.0674,1.075,1.079,1.0806,1.0609,1.0609,1.0608,1.0608,0,0,0.9749,0.9881,0.9903,0.9954,1.0056,1.0126,1.0218,1.0316,1.0366,1.0444,1.0524,1.0649,1.0644,1.0703,1.0732,1.0792,1.0881,1.0778,1.0781,1.0796,1.1016,1.1022,1.1039,1.0887,1.0891,1.0893,1.1009,0,0.9855,1.0019,1.006,1.02,1.0284,1.0306,1.0386,1.0458,1.0503,1.0581,1.0631,1.072,1.0706,1.0741,1.0801,1.0857,1.0926,1.0849,1.0963,1.0967,1.0942,1.106,1.1067,1.1173,1.1025,1.1028,1.103,0,1.0,1.0081,1.0229,1.0322,1.0358,1.0429,1.0523,1.0597,1.0679,1.0708,1.0773,1.0797,1.0894,1.0859,1.0995,1.0942,1.0991,1.1025,1.103,1.1045,1.1004,1.1079,1.1207,1.1224,1.1054,1.1052,1.1051,0,1.0057,1.0202,1.031,1.0352,1.0462,1.0512,1.056,1.064,1.0696,1.0778,1.0816,1.0908,1.0959,1.103,1.1079,1.1048,1.1211,1.1179,1.1239,1.1238,1.1274,1.1271,1.1413,1.1302,1.1302,1.1301,1.1301,0,1.0171,1.0262,1.0337,1.0403,1.0505,1.0552,1.0652,1.0701,1.0772,1.0849,1.0873,1.0945,1.1004,1.1084,1.1123,1.123,1.1252,1.1279,1.1289,1.1278,1.1275,1.1313,1.1307,1.1306,1.1305,1.1304,1.1303,0,1.0252,1.0306,1.0425,1.0519,1.0545,1.0616,1.0697,1.0762,1.0807,1.0905,1.093,1.1002,1.1097,1.1152,1.1273,1.1298,1.1418,1.1423,1.1391,1.1395,1.1452,1.1447,1.1625,1.1651,1.152,1.1521,1.1522,0,1.0323,1.0393,1.0494,1.0547,1.0596,1.0681,1.0739,1.0787,1.0847,1.0946,1.1,1.1097,1.1177,1.1329,1.1392,1.1484,1.1493,1.1549,1.1507,1.1495,1.1496,1.1492,1.15,1.1557,1.1558,1.1559,1.156,0,1.0443,1.0466,1.0548,1.064,1.0708,1.0782,1.0856,1.0899,1.096,1.1025,1.1123,1.1185,1.1308,1.1404,1.1502,1.1552,1.1567,1.1572,1.1591,1.1582,1.1561,1.1575,1.1412,1.1569,1.1568,1.1567,1.1567,1.1566,1.0523,1.0586,1.0668,1.0758,1.0819,1.0887,1.0954,1.1007,1.1089,1.1193,1.1217,1.132,1.1401,1.1533,1.1586,1.1668,1.1658,1.1685,1.1692,1.1699,1.1702,1.1546,1.1686,1.1685,1.1685,1.1685,1.1685,0,1.0646,1.0699,1.0782,1.0885,1.0956,1.0962,1.1044,1.1104,1.1194,1.1268,1.1346,1.1459,1.1553,1.1622,1.1718,1.1771,1.178,1.1794,1.1792,1.1804,1.1704,1.1679,1.1785,1.1785,1.1785,1.1785,1.1785,1.1785,1.0719,1.0827,1.086,1.0999,1.1051,1.1152,1.1199,1.1263,1.1322,1.1446,1.1524,1.1568,1.1641,1.1742,1.1829,1.1847,1.1882,1.1896,1.1915,1.1821,1.1811,1.18,1.1777,1.1902,1.1903,1.2008,1.2009,1.201]},{"header":{"parameterUnit":"m.s-1","parameterCategory":1,"la1":30.2991,"la2":30.254,"lo1":-89.0895,"lo2":-89.0444,"dy":0.0017,"dx":0.0017,"nx":28,"ny":28,"refTime":"2024-05-27T03:00:00:Z","depth":0,"parameterNumber":3,"parameterNumberName":"V-component_of_WINDS"},"data":[0,0,0,0,0,0,0,0,0,0,0,0,0,0,0,0,0,0,0,0,0,0,0,0,0,0,0,0,0,0,0,0,0,0,0,0,0,0,0,0,0,0,0,0,0,0,0,0,0,0,0,0,0,0,0,0,0,0,4.7468,4.7469,0,4.7568,4.7569,4.757,4.7539,4.7537,4.7535,4.7533,4.7626,4.763,4.7634,0,0,0,0,0,0,0,0,0,0,0,0,0,4.724,4.7245,4.7468,4.7469,4.747,4.7567,4.7569,4.757,4.754,4.7537,4.7535,4.7532,4.7624,4.7629,4.7635,0,0,0,0,0,0,0,0,0,0,0,0,0,4.7339,4.7246,4.7467,4.7467,4.7468,4.7567,4.7569,4.757,4.754,4.7537,4.7534,4.7531,4.7622,4.7629,4.7635,4.7738,0,0,4.7656,4.7658,0,0,0,0,0,0,0,0,4.7334,4.7347,4.7466,4.7467,4.7468,4.7538,4.7522,4.7626,4.7541,4.7512,4.7533,4.7529,4.7598,4.7607,4.7632,4.7743,4.7746,4.7656,4.766,4.7663,4.7665,0,0,0,0,0,0,0,4.7327,4.7343,4.7507,4.7467,4.7469,4.7458,4.7469,4.7542,4.7571,4.7515,4.7513,4.7525,4.7598,4.7626,4.7634,4.7748,4.7656,4.7662,4.7666,4.7668,4.7947,4.7951,0,0,0,0,0,0,4.732,4.7337,4.7504,4.751,4.7392,4.7465,4.7477,4.7519,4.757,4.7576,4.7528,4.7524,4.7616,4.7626,4.7637,4.7762,4.7663,4.7669,4.7673,4.7944,4.7948,4.7952,0,0,0,0,0,0,4.7316,4.7336,4.75,4.7423,4.7443,4.7472,4.7519,4.7522,4.755,4.7581,4.7585,4.7551,4.7614,4.7628,4.7714,4.7764,4.7672,4.7678,4.794,4.7945,4.795,4.8011,0,0,0,0,0,0,4.7309,4.7334,4.7376,4.7425,4.7448,4.7578,4.7522,4.7526,4.7562,4.7558,4.7604,4.7608,4.7613,4.7704,4.7721,4.7772,4.7683,4.7935,4.7942,4.7948,4.8005,4.8018,4.8029,0,0,0,0,0,4.7301,4.7387,4.7378,4.7398,4.7501,4.7581,4.7594,4.76,4.7566,4.7607,4.7627,4.7607,4.7756,4.7713,4.7731,4.7785,4.7932,4.794,4.7948,4.7999,4.8015,4.8028,0,0,0,0,0,0,4.7339,4.7393,4.7384,4.7489,4.7531,4.7576,4.7628,4.7617,4.7667,4.766,4.7662,4.7673,4.7761,4.7781,4.7733,4.7887,4.7839,4.785,4.7871,4.7887,4.7899,4.7892,4.7689,0,0,0,0,0,4.7361,4.7425,4.7466,4.7554,4.7576,4.7599,4.7633,4.7635,4.7677,4.7694,4.772,4.776,4.7815,4.7852,4.7905,4.8007,4.8016,4.8052,4.8064,4.8074,4.8084,4.814,4.8157,4.7977,4.7977,4.7977,0,0,4.7403,4.7441,4.748,4.7563,4.7596,4.7659,4.7614,4.7682,4.7728,4.7703,4.7788,4.7808,4.7852,4.7947,4.799,4.7966,4.8136,4.8084,4.8092,4.8097,4.815,4.8167,4.8182,4.7983,4.7982,4.7981,0,0,4.7515,4.755,4.7628,4.7663,4.7715,4.7729,4.7747,4.7795,4.7808,4.7894,4.7876,4.7929,4.8025,4.8058,4.8086,4.8211,4.8193,4.8227,4.829,4.8344,4.8359,4.8371,4.8416,4.8432,4.8237,4.8237,4.8237,0,4.7561,4.766,4.7668,4.774,4.7776,4.7759,4.7837,4.7868,4.7933,4.7957,4.793,4.8052,4.8079,4.8182,4.8213,4.8236,4.8256,4.8222,4.8356,4.8369,4.8381,4.8423,4.844,4.8241,4.8241,4.824,4.824,0,4.7714,4.7783,4.7838,4.7907,4.7948,4.8022,4.8039,4.8079,4.8077,4.8093,4.8179,4.8212,4.8272,4.8296,4.8292,4.8398,4.8382,4.8356,4.8307,4.8402,4.8442,4.8458,4.8247,4.8245,4.8244,4.8243,0,0,4.7853,4.7926,4.7946,4.7977,4.8033,4.8085,4.8156,4.8218,4.8253,4.8298,4.8357,4.8439,4.8416,4.8448,4.8448,4.8495,4.8592,4.8463,4.8464,4.8487,4.871,4.8731,4.8749,4.8581,4.8584,4.8586,4.8707,0,4.797,4.8102,4.8111,4.8228,4.8291,4.8276,4.8338,4.8377,4.8394,4.8447,4.8463,4.8522,4.8486,4.8506,4.8552,4.8571,4.8637,4.8562,4.8634,4.8637,4.8625,4.877,4.8792,4.8904,4.8722,4.8725,4.8727,0,4.8125,4.818,4.8304,4.8352,4.8379,4.8435,4.8493,4.8544,4.8587,4.8596,4.8633,4.8627,4.8697,4.8646,4.8742,4.8691,4.872,4.8734,4.8738,4.8746,4.8688,4.8782,4.894,4.8957,4.8751,4.875,4.8748,0,4.8215,4.8318,4.8407,4.8433,4.8491,4.8532,4.8557,4.8597,4.8634,4.8683,4.8706,4.8761,4.8791,4.8833,4.884,4.8802,4.8936,4.8885,4.8944,4.8944,4.8974,4.8972,4.914,4.8992,4.8991,4.8991,4.8991,0,4.8346,4.8423,4.8449,4.8503,4.8588,4.8596,4.8679,4.8701,4.8737,4.8793,4.8781,4.8833,4.8839,4.8892,4.8897,4.8976,4.8989,4.8997,4.8997,4.8999,4.8998,4.9019,4.9012,4.8995,4.8994,4.8994,4.8993,0,4.8462,4.8482,4.8578,4.8626,4.8639,4.87,4.8739,4.879,4.8805,4.8876,4.8893,4.8916,4.8978,4.8989,4.906,4.9064,4.9159,4.9151,4.9146,4.9145,4.9204,4.9198,4.9391,4.9417,4.9251,4.9252,4.9254,0,4.8545,4.8604,4.866,4.8699,4.8727,4.8789,4.8828,4.8836,4.8876,4.8931,4.8974,4.9035,4.9085,4.9183,4.9204,4.9259,4.9253,4.9316,4.926,4.926,4.9255,4.9252,4.9257,4.9327,4.9329,4.933,4.9332,0,4.869,4.8697,4.8756,4.8818,4.8865,4.8913,4.8958,4.8989,4.9004,4.9049,4.9114,4.9153,4.9227,4.9288,4.9342,4.9364,4.935,4.9349,4.9366,4.9368,4.9363,4.9368,4.9176,4.9345,4.9343,4.9342,4.9342,4.9341,4.8792,4.8845,4.8893,4.8958,4.8994,4.9037,4.9088,4.911,4.9166,4.9231,4.9231,4.9302,4.9342,4.9415,4.944,4.9494,4.9473,4.9497,4.9503,4.9509,4.9515,4.9354,4.9503,4.9503,4.9502,4.9502,4.9502,0,4.8938,4.8968,4.9028,4.9095,4.9145,4.9131,4.918,4.9222,4.9286,4.9327,4.9377,4.9451,4.951,4.9536,4.9592,4.963,4.9625,4.9645,4.9643,4.9648,4.953,4.9511,4.9648,4.9648,4.9648,4.9648,4.9648,4.9648,4.9019,4.9109,4.9122,4.9227,4.9256,4.9329,4.9358,4.9397,4.943,4.9515,4.9565,4.9582,4.9616,4.9676,4.9728,4.9734,4.9755,4.9778,4.9781,4.9671,4.9656,4.9642,4.9624,4.9783,4.9783,4.9895,4.9896,4.9896]}]]